ALK404 VCBI-VTBS

Flight info

Callsign ALK404
Flight time 3h 13m
Altitude 39000
Route DORTA1D ESPAP P762 DWI L877 MIGAR L524 IBETO WILLA1C
Aircraft A20N/M-SDE2E3FGHIRWXY/LB1

Departure

Time 2026-04-23 12:55
Airport Bandaranaike International Colombo Airport (VCBI)

Arrival

Time 2026-04-23 16:09
Airport Suvarnabhumi Airport (VTBS)
Time Latitude Longitude Altitude Speed Heading
2026-04-23 12:32 7.17615 79.88567 30 ft 0 kts 217°
2026-04-23 12:41 7.17622 79.88573 30 ft 3 kts 217°
2026-04-23 12:41 7.17637 79.88584 30 ft 3 kts 217°
2026-04-23 12:42 7.17652 79.88596 30 ft 3 kts 217°
2026-04-23 12:42 7.17667 79.88607 30 ft 3 kts 217°
2026-04-23 12:42 7.17676 79.88614 30 ft 0 kts 224°
2026-04-23 12:42 7.17685 79.88629 30 ft 3 kts 262°
2026-04-23 12:43 7.17685 79.88644 30 ft 0 kts 294°
2026-04-23 12:48 7.17694 79.88635 30 ft 3 kts 320°
2026-04-23 12:48 7.17713 79.88620 30 ft 4 kts 322°
2026-04-23 12:48 7.17746 79.88584 30 ft 11 kts 308°
2026-04-23 12:48 7.17794 79.88522 30 ft 11 kts 307°
2026-04-23 12:49 7.17841 79.88459 30 ft 11 kts 308°
2026-04-23 12:49 7.17906 79.88446 30 ft 10 kts 25°
2026-04-23 12:49 7.17964 79.88482 31 ft 10 kts 38°
2026-04-23 12:49 7.18015 79.88525 30 ft 10 kts 37°
2026-04-23 12:50 7.18068 79.88565 30 ft 9 kts 37°
2026-04-23 12:50 7.18119 79.88604 30 ft 9 kts 37°
2026-04-23 12:50 7.18169 79.88642 30 ft 9 kts 37°
2026-04-23 12:50 7.18216 79.88678 30 ft 8 kts 37°
2026-04-23 12:51 7.18260 79.88712 30 ft 8 kts 38°
2026-04-23 12:51 7.18303 79.88745 30 ft 8 kts 37°
2026-04-23 12:51 7.18345 79.88777 30 ft 7 kts 37°
2026-04-23 12:51 7.18396 79.88815 30 ft 13 kts 37°
2026-04-23 12:52 7.18475 79.88876 31 ft 14 kts 36°
2026-04-23 12:52 7.18554 79.88936 31 ft 14 kts 37°
2026-04-23 12:52 7.18632 79.88996 31 ft 14 kts 39°
2026-04-23 12:52 7.18709 79.89055 31 ft 14 kts 36°
2026-04-23 12:53 7.18796 79.89120 31 ft 18 kts 37°
2026-04-23 12:53 7.18910 79.89208 30 ft 23 kts 37°
2026-04-23 12:53 7.19041 79.89308 30 ft 21 kts 36°
2026-04-23 12:53 7.19140 79.89384 30 ft 16 kts 36°
2026-04-23 12:54 7.19227 79.89382 30 ft 11 kts 309°
2026-04-23 12:54 7.19262 79.89338 30 ft 9 kts 308°
2026-04-23 12:54 7.19287 79.89280 30 ft 8 kts 246°
2026-04-23 12:54 7.19142 79.89159 31 ft 57 kts 218°
2026-04-23 12:55 7.18651 79.88784 33 ft 118 kts 217°
2026-04-23 12:55 7.17862 79.88183 66 ft 160 kts 220°
2026-04-23 12:55 7.16992 79.87493 563 ft 157 kts 218°
2026-04-23 12:55 7.16139 79.86802 1044 ft 159 kts 223°
2026-04-23 12:56 7.15639 79.85825 1569 ft 162 kts 266°
2026-04-23 12:56 7.16076 79.84741 2001 ft 188 kts 317°
2026-04-23 12:56 7.17384 79.84264 2276 ft 223 kts
2026-04-23 12:56 7.18883 79.84877 2654 ft 248 kts 44°
2026-04-23 12:57 7.19733 79.86386 3350 ft 253 kts 77°
2026-04-23 12:57 7.20048 79.88118 4179 ft 256 kts 81°
2026-04-23 12:57 7.20303 79.89899 5025 ft 258 kts 82°
2026-04-23 12:57 7.20554 79.91716 5866 ft 259 kts 81°
2026-04-23 12:58 7.20802 79.93522 6663 ft 262 kts 81°
2026-04-23 12:58 7.21054 79.95352 7392 ft 266 kts 81°
2026-04-23 12:58 7.21304 79.97186 8129 ft 270 kts 81°
2026-04-23 12:58 7.21707 79.99034 8895 ft 272 kts 70°
2026-04-23 12:59 7.22518 80.00764 9672 ft 275 kts 58°
2026-04-23 12:59 7.23644 80.02335 10345 ft 278 kts 52°
2026-04-23 12:59 7.24743 80.03950 11019 ft 282 kts 60°
2026-04-23 12:59 7.25515 80.05778 11704 ft 286 kts 74°
2026-04-23 13:00 7.25814 80.07765 12422 ft 290 kts 85°
2026-04-23 13:00 7.25910 80.09805 13167 ft 293 kts 87°
2026-04-23 13:00 7.25985 80.11866 13872 ft 297 kts 86°
2026-04-23 13:00 7.26070 80.13953 14541 ft 300 kts 86°
2026-04-23 13:01 7.26168 80.16058 15226 ft 302 kts 86°
2026-04-23 13:01 7.26274 80.18184 15902 ft 305 kts 86°
2026-04-23 13:01 7.26385 80.20328 16589 ft 308 kts 86°
2026-04-23 13:01 7.26499 80.22491 17264 ft 311 kts 86°
2026-04-23 13:02 7.26616 80.24670 17939 ft 313 kts 86°
2026-04-23 13:02 7.26735 80.26875 18529 ft 317 kts 86°
2026-04-23 13:02 7.26854 80.29103 19053 ft 321 kts 86°
2026-04-23 13:02 7.26976 80.31362 19589 ft 326 kts 86°
2026-04-23 13:03 7.27100 80.33655 20133 ft 330 kts 86°
2026-04-23 13:03 7.27225 80.35977 20684 ft 334 kts 86°
2026-04-23 13:03 7.27351 80.38320 21253 ft 337 kts 86°
2026-04-23 13:03 7.27479 80.40698 21776 ft 342 kts 86°
2026-04-23 13:04 7.27677 80.43114 22130 ft 352 kts 80°
2026-04-23 13:04 7.28284 80.45551 22369 ft 365 kts 71°
2026-04-23 13:04 7.29129 80.48011 22600 ft 378 kts 70°
2026-04-23 13:04 7.30042 80.50539 22821 ft 390 kts 70°
2026-04-23 13:05 7.30983 80.53138 23045 ft 401 kts 70°
2026-04-23 13:05 7.31944 80.55806 23367 ft 408 kts 70°
2026-04-23 13:05 7.32914 80.58514 23734 ft 413 kts 70°
2026-04-23 13:05 7.33890 80.61244 24114 ft 416 kts 70°
2026-04-23 13:06 7.35860 80.66758 24913 ft 421 kts 70°
2026-04-23 13:06 7.36849 80.69536 25305 ft 423 kts 71°
2026-04-23 13:06 7.37844 80.72340 25685 ft 426 kts 71°
2026-04-23 13:07 7.38845 80.75158 26045 ft 429 kts 71°
2026-04-23 13:07 7.39851 80.77991 26388 ft 432 kts 71°
2026-04-23 13:07 7.40866 80.80846 26740 ft 434 kts 71°
2026-04-23 13:07 7.41888 80.83719 27067 ft 437 kts 71°
2026-04-23 13:08 7.42915 80.86607 27390 ft 439 kts 71°
2026-04-23 13:08 7.43949 80.89516 27700 ft 442 kts 71°
2026-04-23 13:08 7.44987 80.92442 27999 ft 445 kts 71°
2026-04-23 13:08 7.46033 80.95390 28307 ft 448 kts 71°
2026-04-23 13:09 7.47084 80.98351 28606 ft 450 kts 71°
2026-04-23 13:09 7.48142 81.01331 28899 ft 453 kts 71°
2026-04-23 13:09 7.49205 81.04330 29180 ft 456 kts 71°
2026-04-23 13:09 7.50277 81.07353 29466 ft 459 kts 72°
2026-04-23 13:10 7.51355 81.10391 29745 ft 462 kts 72°
2026-04-23 13:10 7.52437 81.13446 29990 ft 465 kts 72°
2026-04-23 13:10 7.53579 81.16500 30226 ft 468 kts 68°
2026-04-23 13:10 7.55097 81.19408 30486 ft 471 kts 59°
2026-04-23 13:11 7.56882 81.22184 30747 ft 473 kts 57°
2026-04-23 13:11 7.58724 81.24935 31012 ft 474 kts 57°
2026-04-23 13:11 7.60577 81.27689 31267 ft 475 kts 57°
2026-04-23 13:11 7.62428 81.30447 31604 ft 474 kts 57°
2026-04-23 13:12 7.64271 81.33199 31976 ft 473 kts 57°
2026-04-23 13:12 7.66107 81.35944 32319 ft 472 kts 57°
2026-04-23 13:12 7.67939 81.38687 32656 ft 471 kts 57°
2026-04-23 13:12 7.69765 81.41423 32992 ft 470 kts 57°
2026-04-23 13:13 7.71588 81.44154 33316 ft 469 kts 57°
2026-04-23 13:13 7.73265 81.46960 33607 ft 467 kts 65°
2026-04-23 13:13 7.74544 81.49963 33886 ft 465 kts 71°
2026-04-23 13:13 7.75651 81.53018 34153 ft 464 kts 72°
2026-04-23 13:14 7.76729 81.56085 34414 ft 463 kts 72°
2026-04-23 13:14 7.77803 81.59145 34666 ft 463 kts 72°
2026-04-23 13:14 7.78878 81.62199 34907 ft 462 kts 72°
2026-04-23 13:14 7.79954 81.65253 35145 ft 462 kts 72°
2026-04-23 13:15 7.81031 81.68305 35390 ft 462 kts 72°
2026-04-23 13:15 7.82109 81.71357 35611 ft 462 kts 72°
2026-04-23 13:15 7.82822 81.73374 35763 ft 462 kts 72°
2026-04-23 13:15 7.84262 81.77451 36043 ft 461 kts 72°
2026-04-23 13:16 7.85339 81.80500 36235 ft 462 kts 72°
2026-04-23 13:16 7.86402 81.83507 36446 ft 462 kts 72°
2026-04-23 13:16 7.87480 81.86562 36632 ft 462 kts 72°
2026-04-23 13:16 7.88557 81.89611 36838 ft 462 kts 72°
2026-04-23 13:17 7.89635 81.92665 37036 ft 462 kts 72°
2026-04-23 13:17 7.90711 81.95715 37227 ft 462 kts 72°
2026-04-23 13:17 7.91788 81.98769 37407 ft 462 kts 72°
2026-04-23 13:17 7.92865 82.01826 37582 ft 462 kts 72°
2026-04-23 13:18 7.93945 82.04889 37780 ft 462 kts 72°
2026-04-23 13:18 7.95020 82.07940 37978 ft 462 kts 72°
2026-04-23 13:18 7.96096 82.10991 38177 ft 461 kts 72°
2026-04-23 13:18 7.97168 82.14034 38367 ft 460 kts 72°
2026-04-23 13:19 7.97879 82.16049 38483 ft 460 kts 72°
2026-04-23 13:19 7.98951 82.19094 38629 ft 460 kts 72°
2026-04-23 13:19 8.00022 82.22133 38766 ft 460 kts 72°
2026-04-23 13:20 8.02161 82.28212 38822 ft 458 kts 72°
2026-04-23 13:20 8.04289 82.34261 38823 ft 457 kts 72°
2026-04-23 13:21 8.06413 82.40302 38829 ft 456 kts 73°
2026-04-23 13:21 8.08533 82.46334 38833 ft 456 kts 72°
2026-04-23 13:22 8.10653 82.52370 38818 ft 456 kts 72°
2026-04-23 13:22 8.12772 82.58405 38824 ft 456 kts 72°
2026-04-23 13:23 8.14893 82.64449 38824 ft 456 kts 72°
2026-04-23 13:23 8.17011 82.70490 38831 ft 456 kts 72°
2026-04-23 13:24 8.19127 82.76524 38832 ft 456 kts 72°
2026-04-23 13:24 8.21244 82.82567 38835 ft 456 kts 72°
2026-04-23 13:25 8.23356 82.88610 38839 ft 456 kts 72°
2026-04-23 13:25 8.25448 82.94663 38836 ft 456 kts 73°
2026-04-23 13:26 8.27525 83.00709 38831 ft 455 kts 73°
2026-04-23 13:26 8.29595 83.06744 38832 ft 455 kts 73°
2026-04-23 13:27 8.31665 83.12775 38836 ft 454 kts 73°
2026-04-23 13:27 8.33719 83.18764 38822 ft 454 kts 73°
2026-04-23 13:28 8.35783 83.24785 38837 ft 454 kts 73°
2026-04-23 13:28 8.37848 83.30811 38830 ft 454 kts 73°
2026-04-23 13:29 8.39910 83.36832 38827 ft 453 kts 73°
2026-04-23 13:29 8.41969 83.42848 38827 ft 453 kts 73°
2026-04-23 13:30 8.44027 83.48864 38836 ft 453 kts 73°
2026-04-23 13:30 8.46084 83.54880 38831 ft 453 kts 73°
2026-04-23 13:31 8.48138 83.60893 38840 ft 453 kts 73°
2026-04-23 13:31 8.50192 83.66908 38828 ft 453 kts 73°
2026-04-23 13:32 8.52242 83.72913 38832 ft 453 kts 72°
2026-04-23 13:32 8.54295 83.78930 38831 ft 452 kts 72°
2026-04-23 13:33 8.56347 83.84952 38838 ft 452 kts 73°
2026-04-23 13:33 8.58381 83.90921 38826 ft 452 kts 72°
2026-04-23 13:34 8.60427 83.96927 38834 ft 452 kts 72°
2026-04-23 13:34 8.62476 84.02946 38833 ft 452 kts 72°
2026-04-23 13:35 8.64520 84.08955 38839 ft 452 kts 72°
2026-04-23 13:35 8.66565 84.14969 38833 ft 452 kts 72°
2026-04-23 13:36 8.68607 84.20980 38832 ft 452 kts 72°
2026-04-23 13:36 8.70648 84.26992 38829 ft 452 kts 72°
2026-04-23 13:37 8.72690 84.33006 38835 ft 452 kts 72°
2026-04-23 13:37 8.74724 84.39003 38828 ft 452 kts 72°
2026-04-23 13:38 8.76767 84.45029 38836 ft 452 kts 72°
2026-04-23 13:38 8.78799 84.51022 38835 ft 453 kts 72°
2026-04-23 13:39 8.80841 84.57045 38833 ft 453 kts 72°
2026-04-23 13:39 8.82880 84.63069 38838 ft 453 kts 72°
2026-04-23 13:40 8.84914 84.69100 38836 ft 453 kts 72°
2026-04-23 13:40 8.86950 84.75125 38833 ft 453 kts 72°
2026-04-23 13:41 8.88998 84.81160 38835 ft 454 kts 72°
2026-04-23 13:41 8.91066 84.87183 38830 ft 454 kts 72°
2026-04-23 13:42 8.93136 84.93215 38832 ft 454 kts 72°
2026-04-23 13:42 8.95205 84.99248 38837 ft 454 kts 72°
2026-04-23 13:43 8.97275 85.05290 38841 ft 454 kts 72°
2026-04-23 13:43 8.99342 85.11329 38834 ft 455 kts 72°
2026-04-23 13:44 9.01411 85.17375 38838 ft 455 kts 72°
2026-04-23 13:44 9.03479 85.23422 38841 ft 455 kts 71°
2026-04-23 13:45 9.05547 85.29472 38834 ft 455 kts 71°
2026-04-23 13:45 9.07616 85.35530 38836 ft 456 kts 71°
2026-04-23 13:46 9.09685 85.41591 38845 ft 456 kts 71°
2026-04-23 13:46 9.11752 85.47650 38840 ft 456 kts 71°
2026-04-23 13:47 9.13820 85.53714 38844 ft 456 kts 71°
2026-04-23 13:47 9.15886 85.59777 38835 ft 456 kts 71°
2026-04-23 13:48 9.17952 85.65845 38840 ft 456 kts 71°
2026-04-23 13:48 9.20018 85.71916 38840 ft 456 kts 71°
2026-04-23 13:49 9.22084 85.77991 38837 ft 456 kts 71°
2026-04-23 13:49 9.24150 85.84068 38835 ft 457 kts 71°
2026-04-23 13:50 9.26235 85.90144 38838 ft 457 kts 71°
2026-04-23 13:50 9.28364 85.96195 38839 ft 456 kts 71°
2026-04-23 13:51 9.30500 86.02247 38838 ft 456 kts 71°
2026-04-23 13:51 9.32629 86.08301 38838 ft 457 kts 71°
2026-04-23 13:52 9.34754 86.14357 38837 ft 457 kts 71°
2026-04-23 13:52 9.36880 86.20422 38835 ft 457 kts 71°
2026-04-23 13:53 9.39004 86.26483 38837 ft 457 kts 71°
2026-04-23 13:53 9.41126 86.32541 38837 ft 456 kts 71°
2026-04-23 13:54 9.43248 86.38602 38843 ft 456 kts 71°
2026-04-23 13:54 9.45366 86.44657 38839 ft 456 kts 71°
2026-04-23 13:55 9.47471 86.50681 38838 ft 456 kts 71°
2026-04-23 13:55 9.49602 86.56780 38837 ft 456 kts 71°
2026-04-23 13:56 9.51718 86.62838 38840 ft 456 kts 71°
2026-04-23 13:56 9.53832 86.68898 38839 ft 456 kts 71°
2026-04-23 13:57 9.55943 86.74956 38846 ft 456 kts 71°
2026-04-23 13:57 9.58043 86.80975 38842 ft 456 kts 71°
2026-04-23 13:58 9.60163 86.87033 38844 ft 456 kts 71°
2026-04-23 13:58 9.62280 86.93092 38845 ft 456 kts 71°
2026-04-23 13:59 9.64393 86.99157 38839 ft 456 kts 71°
2026-04-23 13:59 9.66493 87.05223 38842 ft 456 kts 71°
2026-04-23 14:00 9.68251 87.10308 38842 ft 456 kts 71°
2026-04-23 14:00 9.70695 87.17362 38843 ft 456 kts 71°
2026-04-23 14:01 9.72800 87.23427 38841 ft 456 kts 71°
2026-04-23 14:01 9.74902 87.29490 38838 ft 456 kts 71°
2026-04-23 14:02 9.77013 87.35556 38843 ft 456 kts 71°
2026-04-23 14:02 9.79226 87.41588 38845 ft 456 kts 70°
2026-04-23 14:03 9.81486 87.47599 38847 ft 456 kts 70°
2026-04-23 14:03 9.83743 87.53611 38844 ft 456 kts 70°
2026-04-23 14:04 9.85610 87.58611 38843 ft 456 kts 70°
2026-04-23 14:04 9.87850 87.64626 38846 ft 456 kts 70°
2026-04-23 14:05 9.90087 87.70639 38846 ft 456 kts 70°
2026-04-23 14:05 9.92323 87.76656 38842 ft 456 kts 70°
2026-04-23 14:06 9.94559 87.82672 38844 ft 456 kts 70°
2026-04-23 14:06 9.96796 87.88695 38847 ft 456 kts 70°
2026-04-23 14:07 9.99032 87.94716 38851 ft 456 kts 70°
2026-04-23 14:07 10.02382 88.03751 38852 ft 456 kts 70°
2026-04-23 14:08 10.04613 88.09773 38851 ft 456 kts 70°
2026-04-23 14:08 10.06842 88.15794 38851 ft 456 kts 70°
2026-04-23 14:09 10.09071 88.21817 38852 ft 456 kts 70°
2026-04-23 14:09 10.11299 88.27841 38850 ft 456 kts 70°
2026-04-23 14:10 10.13526 88.33867 38851 ft 456 kts 70°
2026-04-23 14:10 10.15751 88.39890 38850 ft 455 kts 70°
2026-04-23 14:11 10.17971 88.45904 38851 ft 455 kts 70°
2026-04-23 14:11 10.20190 88.51918 38852 ft 455 kts 70°
2026-04-23 14:12 10.22407 88.57927 38850 ft 454 kts 70°
2026-04-23 14:12 10.24620 88.63928 38851 ft 454 kts 70°
2026-04-23 14:13 10.26818 88.69892 38850 ft 454 kts 70°
2026-04-23 14:13 10.29042 88.75930 38852 ft 453 kts 70°
2026-04-23 14:14 10.31249 88.81928 38850 ft 453 kts 70°
2026-04-23 14:14 10.33453 88.87919 38852 ft 453 kts 70°
2026-04-23 14:15 10.35640 88.93868 38854 ft 452 kts 70°
2026-04-23 14:15 10.37838 88.99851 38852 ft 452 kts 70°
2026-04-23 14:16 10.40033 89.05832 38851 ft 452 kts 70°
2026-04-23 14:16 10.42226 89.11809 38852 ft 451 kts 70°
2026-04-23 14:17 10.44412 89.17770 38853 ft 451 kts 70°
2026-04-23 14:17 10.46609 89.23767 38852 ft 451 kts 70°
2026-04-23 14:18 10.48796 89.29737 38853 ft 451 kts 70°
2026-04-23 14:18 10.50982 89.35707 38850 ft 451 kts 70°
2026-04-23 14:19 10.53164 89.41675 38849 ft 450 kts 70°
2026-04-23 14:19 10.55345 89.47645 38852 ft 450 kts 70°
2026-04-23 14:20 10.57522 89.53606 38850 ft 450 kts 70°
2026-04-23 14:20 10.59700 89.59573 38850 ft 450 kts 70°
2026-04-23 14:21 10.61880 89.65535 38851 ft 450 kts 70°
2026-04-23 14:21 10.64060 89.71495 38851 ft 450 kts 70°
2026-04-23 14:22 10.66235 89.77452 38853 ft 449 kts 70°
2026-04-23 14:22 10.68404 89.83402 38853 ft 449 kts 70°
2026-04-23 14:23 10.70559 89.89360 38849 ft 449 kts 70°
2026-04-23 14:23 10.72711 89.95309 38850 ft 448 kts 70°
2026-04-23 14:24 10.74851 90.01258 38858 ft 448 kts 71°
2026-04-23 14:24 10.76918 90.07236 38858 ft 448 kts 71°
2026-04-23 14:25 10.78948 90.13173 38858 ft 447 kts 71°
2026-04-23 14:25 10.81013 90.19180 38859 ft 447 kts 71°
2026-04-23 14:26 10.83064 90.25148 38856 ft 447 kts 71°
2026-04-23 14:26 10.85110 90.31119 38856 ft 447 kts 71°
2026-04-23 14:27 10.87154 90.37079 38857 ft 446 kts 71°
2026-04-23 14:27 10.89198 90.43044 38855 ft 446 kts 71°
2026-04-23 14:28 10.91233 90.49005 38856 ft 446 kts 71°
2026-04-23 14:28 10.93253 90.54917 38855 ft 446 kts 71°
2026-04-23 14:29 10.95292 90.60886 38858 ft 445 kts 71°
2026-04-23 14:29 10.97326 90.66836 38853 ft 445 kts 71°
2026-04-23 14:30 10.99359 90.72792 38856 ft 445 kts 71°
2026-04-23 14:30 11.01390 90.78743 38853 ft 445 kts 71°
2026-04-23 14:31 11.03417 90.84690 38859 ft 445 kts 71°
2026-04-23 14:31 11.05445 90.90644 38857 ft 445 kts 71°
2026-04-23 14:32 11.07472 90.96597 38856 ft 445 kts 71°
2026-04-23 14:32 11.09495 91.02545 38857 ft 445 kts 71°
2026-04-23 14:33 11.11518 91.08495 38856 ft 445 kts 71°
2026-04-23 14:33 11.13538 91.14442 38854 ft 444 kts 71°
2026-04-23 14:34 11.15557 91.20389 38857 ft 444 kts 71°
2026-04-23 14:34 11.17575 91.26336 38856 ft 444 kts 71°
2026-04-23 14:35 11.19590 91.32283 38858 ft 444 kts 71°
2026-04-23 14:35 11.21605 91.38230 38855 ft 444 kts 71°
2026-04-23 14:36 11.23617 91.44175 38855 ft 444 kts 71°
2026-04-23 14:36 11.25627 91.50117 38857 ft 444 kts 71°
2026-04-23 14:37 11.27635 91.56059 38854 ft 444 kts 71°
2026-04-23 14:37 11.29643 91.62002 38857 ft 443 kts 71°
2026-04-23 14:38 11.31649 91.67946 38858 ft 443 kts 71°
2026-04-23 14:38 11.33652 91.73885 38855 ft 443 kts 71°
2026-04-23 14:39 11.35648 91.79823 38856 ft 443 kts 72°
2026-04-23 14:39 11.37541 91.85791 38854 ft 443 kts 72°
2026-04-23 14:40 11.39381 91.91774 38854 ft 442 kts 73°
2026-04-23 14:40 11.41223 91.97758 38856 ft 442 kts 73°
2026-04-23 14:41 11.43073 92.03740 38848 ft 442 kts 72°
2026-04-23 14:41 11.44913 92.09680 38849 ft 442 kts 72°
2026-04-23 14:42 11.46764 92.15660 38852 ft 443 kts 72°
2026-04-23 14:42 11.48615 92.21642 38845 ft 442 kts 72°
2026-04-23 14:43 11.50463 92.27624 38846 ft 442 kts 72°
2026-04-23 14:43 11.52312 92.33612 38843 ft 443 kts 72°
2026-04-23 14:44 11.54161 92.39603 38837 ft 443 kts 72°
2026-04-23 14:44 11.56008 92.45594 38838 ft 443 kts 72°
2026-04-23 14:45 11.57856 92.51591 38837 ft 443 kts 72°
2026-04-23 14:45 11.59705 92.57598 38834 ft 444 kts 72°
2026-04-23 14:46 11.61551 92.63601 38835 ft 444 kts 72°
2026-04-23 14:46 11.63397 92.69608 38834 ft 444 kts 72°
2026-04-23 14:47 11.65421 92.75550 38840 ft 443 kts 67°
2026-04-23 14:47 11.67905 92.81311 38841 ft 444 kts 65°
2026-04-23 14:48 11.70477 92.87033 38844 ft 444 kts 65°
2026-04-23 14:48 11.73063 92.92754 38847 ft 444 kts 65°
2026-04-23 14:49 11.75206 92.97516 38853 ft 444 kts 65°
2026-04-23 14:49 11.77776 93.03243 38857 ft 444 kts 65°
2026-04-23 14:50 11.80345 93.08977 38857 ft 444 kts 65°
2026-04-23 14:50 11.82910 93.14707 38854 ft 444 kts 65°
2026-04-23 14:51 11.85475 93.20438 38856 ft 444 kts 65°
2026-04-23 14:51 11.88039 93.26170 38858 ft 444 kts 65°
2026-04-23 14:52 11.90599 93.31899 38856 ft 443 kts 65°
2026-04-23 14:52 11.93157 93.37629 38852 ft 444 kts 65°
2026-04-23 14:53 11.95720 93.43365 38855 ft 444 kts 65°
2026-04-23 14:53 11.98279 93.49098 38854 ft 444 kts 65°
2026-04-23 14:54 12.00840 93.54826 38853 ft 443 kts 65°
2026-04-23 14:54 12.03398 93.60559 38852 ft 443 kts 65°
2026-04-23 14:55 12.05947 93.66294 38856 ft 443 kts 65°
2026-04-23 14:55 12.08492 93.72034 38854 ft 443 kts 65°
2026-04-23 14:56 12.11040 93.77771 38854 ft 444 kts 65°
2026-04-23 14:56 12.13591 93.83513 38853 ft 444 kts 65°
2026-04-23 14:57 12.16140 93.89252 38851 ft 444 kts 65°
2026-04-23 14:57 12.18689 93.94996 38852 ft 443 kts 65°
2026-04-23 14:58 12.21234 94.00735 38854 ft 443 kts 65°
2026-04-23 14:58 12.23790 94.06465 38849 ft 443 kts 65°
2026-04-23 14:59 12.26370 94.12189 38849 ft 443 kts 65°
2026-04-23 14:59 12.28952 94.17914 38849 ft 443 kts 65°
2026-04-23 15:00 12.31529 94.23639 38851 ft 443 kts 65°
2026-04-23 15:00 12.34103 94.29368 38846 ft 443 kts 65°
2026-04-23 15:01 12.36661 94.35062 38851 ft 443 kts 65°
2026-04-23 15:01 12.39235 94.40794 38860 ft 443 kts 65°
2026-04-23 15:02 12.41821 94.46521 38861 ft 443 kts 65°
2026-04-23 15:02 12.44431 94.52282 38848 ft 443 kts 65°
2026-04-23 15:03 12.47024 94.58007 38853 ft 443 kts 65°
2026-04-23 15:03 12.49595 94.63689 38859 ft 443 kts 65°
2026-04-23 15:04 12.52184 94.69418 38862 ft 443 kts 65°
2026-04-23 15:04 12.54766 94.75138 38859 ft 443 kts 65°
2026-04-23 15:05 12.57348 94.80859 38853 ft 442 kts 65°
2026-04-23 15:05 12.59931 94.86577 38856 ft 442 kts 65°
2026-04-23 15:06 12.62513 94.92289 38856 ft 442 kts 65°
2026-04-23 15:06 12.65090 94.98003 38860 ft 442 kts 65°
2026-04-23 15:07 12.67660 95.03713 38861 ft 442 kts 65°
2026-04-23 15:07 12.70223 95.09429 38857 ft 442 kts 66°
2026-04-23 15:08 12.72793 95.15144 38852 ft 442 kts 65°
2026-04-23 15:09 12.76652 95.23714 38850 ft 442 kts 66°
2026-04-23 15:09 12.79215 95.29438 38854 ft 442 kts 66°
2026-04-23 15:10 12.81342 95.34198 38850 ft 442 kts 66°
2026-04-23 15:10 12.84341 95.40893 38852 ft 442 kts 66°
2026-04-23 15:11 12.86908 95.46620 38862 ft 442 kts 66°
2026-04-23 15:11 12.89498 95.52339 38852 ft 442 kts 65°
2026-04-23 15:12 12.92110 95.58052 38850 ft 442 kts 65°
2026-04-23 15:12 12.94721 95.63761 38849 ft 442 kts 65°
2026-04-23 15:13 12.97328 95.69474 38851 ft 442 kts 65°
2026-04-23 15:13 12.99932 95.75186 38845 ft 442 kts 65°
2026-04-23 15:14 13.02534 95.80898 38851 ft 442 kts 66°
2026-04-23 15:14 13.05134 95.86612 38847 ft 442 kts 65°
2026-04-23 15:15 13.07725 95.92308 38848 ft 438 kts 66°
2026-04-23 15:15 13.10275 95.97918 38849 ft 436 kts 66°
2026-04-23 15:16 13.12839 96.03564 38850 ft 436 kts 66°
2026-04-23 15:16 13.15401 96.09208 38847 ft 436 kts 66°
2026-04-23 15:17 13.17962 96.14855 38848 ft 436 kts 66°
2026-04-23 15:17 13.20520 96.20499 38858 ft 436 kts 66°
2026-04-23 15:18 13.23080 96.26149 38850 ft 436 kts 66°
2026-04-23 15:18 13.25635 96.31797 38850 ft 436 kts 66°
2026-04-23 15:19 13.28192 96.37447 38851 ft 436 kts 66°
2026-04-23 15:19 13.30746 96.43093 38851 ft 436 kts 66°
2026-04-23 15:20 13.32868 96.47788 38852 ft 436 kts 66°
2026-04-23 15:20 13.35850 96.54398 38851 ft 436 kts 66°
2026-04-23 15:21 13.38399 96.60055 38851 ft 436 kts 66°
2026-04-23 15:21 13.40947 96.65713 38849 ft 436 kts 66°
2026-04-23 15:22 13.43493 96.71372 38852 ft 436 kts 66°
2026-04-23 15:22 13.46036 96.77017 38850 ft 436 kts 66°
2026-04-23 15:23 13.48584 96.82675 38851 ft 436 kts 66°
2026-04-23 15:23 13.51132 96.88345 38848 ft 437 kts 66°
2026-04-23 15:24 13.53677 96.94010 38852 ft 437 kts 66°
2026-04-23 15:24 13.56218 96.99672 38850 ft 436 kts 66°
2026-04-23 15:25 13.58760 97.05338 38850 ft 436 kts 66°
2026-04-23 15:25 13.61299 97.11004 38853 ft 436 kts 66°
2026-04-23 15:26 13.63825 97.16635 38851 ft 436 kts 66°
2026-04-23 15:26 13.66380 97.22339 38855 ft 436 kts 66°
2026-04-23 15:27 13.68899 97.27968 38850 ft 436 kts 66°
2026-04-23 15:27 13.71436 97.33636 38851 ft 436 kts 66°
2026-04-23 15:28 13.73966 97.39309 38849 ft 436 kts 66°
2026-04-23 15:28 13.76493 97.44982 38853 ft 436 kts 66°
2026-04-23 15:29 13.79022 97.50658 38847 ft 436 kts 66°
2026-04-23 15:29 13.81551 97.56333 38851 ft 436 kts 66°
2026-04-23 15:30 13.84076 97.62004 38850 ft 436 kts 66°
2026-04-23 15:30 13.86588 97.67650 38857 ft 436 kts 66°
2026-04-23 15:31 13.89112 97.73326 38853 ft 436 kts 66°
2026-04-23 15:31 13.91633 97.79001 38854 ft 435 kts 66°
2026-04-23 15:32 13.94149 97.84667 38856 ft 435 kts 66°
2026-04-23 15:32 13.96664 97.90335 38857 ft 435 kts 66°
2026-04-23 15:33 13.99177 97.96004 38853 ft 435 kts 66°
2026-04-23 15:33 14.01694 98.01687 38858 ft 435 kts 66°
2026-04-23 15:34 14.04201 98.07351 38860 ft 435 kts 66°
2026-04-23 15:34 14.06709 98.13021 38861 ft 435 kts 66°
2026-04-23 15:35 14.08790 98.17728 38865 ft 434 kts 66°
2026-04-23 15:35 14.10831 98.23566 38873 ft 433 kts 73°
2026-04-23 15:36 14.12737 98.30507 38873 ft 433 kts 75°
2026-04-23 15:36 14.14050 98.35514 38876 ft 432 kts 75°
2026-04-23 15:37 14.15617 98.41496 38877 ft 432 kts 75°
2026-04-23 15:37 14.17189 98.47464 38883 ft 432 kts 75°
2026-04-23 15:38 14.18766 98.53434 38883 ft 432 kts 75°
2026-04-23 15:38 14.20344 98.59400 38885 ft 432 kts 75°
2026-04-23 15:39 14.21923 98.65380 38880 ft 432 kts 75°
2026-04-23 15:39 14.23498 98.71356 38884 ft 432 kts 75°
2026-04-23 15:40 14.25076 98.77336 38883 ft 433 kts 74°
2026-04-23 15:40 14.26658 98.83328 38875 ft 433 kts 74°
2026-04-23 15:41 14.28237 98.89318 38874 ft 433 kts 74°
2026-04-23 15:41 14.29731 98.95336 38871 ft 433 kts 80°
2026-04-23 15:42 14.30497 99.01502 38873 ft 434 kts 83°
2026-04-23 15:42 14.31125 99.07686 38864 ft 434 kts 83°
2026-04-23 15:43 14.31730 99.13844 38550 ft 436 kts 84°
2026-04-23 15:43 14.32031 99.16946 38011 ft 434 kts 84°
2026-04-23 15:43 14.32331 99.20040 37420 ft 433 kts 84°
2026-04-23 15:43 14.32635 99.23174 36776 ft 435 kts 84°
2026-04-23 15:44 14.32935 99.26281 36115 ft 437 kts 84°
2026-04-23 15:44 14.33237 99.29405 35457 ft 439 kts 84°
2026-04-23 15:44 14.33540 99.32549 34793 ft 442 kts 84°
2026-04-23 15:44 14.33844 99.35705 34157 ft 444 kts 84°
2026-04-23 15:45 14.34150 99.38879 33524 ft 445 kts 83°
2026-04-23 15:45 14.34450 99.42001 32965 ft 442 kts 83°
2026-04-23 15:45 14.34751 99.45142 32456 ft 439 kts 83°
2026-04-23 15:45 14.35054 99.48305 31967 ft 435 kts 83°
2026-04-23 15:46 14.35349 99.51396 31485 ft 432 kts 83°
2026-04-23 15:46 14.35615 99.54430 31010 ft 429 kts 86°
2026-04-23 15:46 14.35574 99.57536 30524 ft 427 kts 94°
2026-04-23 15:46 14.35078 99.60502 30056 ft 425 kts 104°
2026-04-23 15:47 14.34183 99.63446 29526 ft 423 kts 108°
2026-04-23 15:47 14.33196 99.66290 28925 ft 421 kts 109°
2026-04-23 15:47 14.32180 99.69141 28261 ft 423 kts 109°
2026-04-23 15:47 14.31171 99.71958 27915 ft 415 kts 109°
2026-04-23 15:48 14.30178 99.74730 27510 ft 409 kts 109°
2026-04-23 15:48 14.29197 99.77471 27071 ft 406 kts 109°
2026-04-23 15:48 14.28225 99.80187 26622 ft 402 kts 109°
2026-04-23 15:48 14.27262 99.82879 26176 ft 399 kts 109°
2026-04-23 15:49 14.26306 99.85552 25725 ft 396 kts 109°
2026-04-23 15:49 14.25355 99.88207 25276 ft 393 kts 109°
2026-04-23 15:49 14.24411 99.90843 24841 ft 391 kts 109°
2026-04-23 15:49 14.23473 99.93460 24409 ft 388 kts 109°
2026-04-23 15:50 14.22542 99.96059 23984 ft 385 kts 109°
2026-04-23 15:50 14.21616 99.98644 23572 ft 383 kts 109°
2026-04-23 15:50 14.20697 100.01206 23087 ft 380 kts 109°
2026-04-23 15:50 14.19782 100.03753 22606 ft 378 kts 109°
2026-04-23 15:51 14.18874 100.06282 22109 ft 375 kts 109°
2026-04-23 15:51 14.17975 100.08787 21641 ft 372 kts 109°
2026-04-23 15:51 14.17086 100.11261 21176 ft 369 kts 109°
2026-04-23 15:51 14.16192 100.13746 20717 ft 366 kts 109°
2026-04-23 15:52 14.15311 100.16196 20258 ft 363 kts 109°
2026-04-23 15:52 14.14438 100.18622 19809 ft 360 kts 109°
2026-04-23 15:52 14.13570 100.21035 19361 ft 358 kts 109°
2026-04-23 15:52 14.12707 100.23435 18915 ft 355 kts 109°
2026-04-23 15:53 14.11852 100.25811 18476 ft 353 kts 109°
2026-04-23 15:53 14.11002 100.28172 18032 ft 351 kts 109°
2026-04-23 15:53 14.10157 100.30519 17538 ft 348 kts 109°
2026-04-23 15:53 14.09317 100.32849 17058 ft 345 kts 109°
2026-04-23 15:54 14.08484 100.35160 16596 ft 343 kts 109°
2026-04-23 15:54 14.07658 100.37450 16136 ft 340 kts 109°
2026-04-23 15:54 14.06841 100.39717 15694 ft 337 kts 109°
2026-04-23 15:54 14.06028 100.41973 15242 ft 334 kts 109°
2026-04-23 15:55 14.05224 100.44202 14805 ft 331 kts 109°
2026-04-23 15:55 14.04426 100.46415 14372 ft 328 kts 109°
2026-04-23 15:55 14.03636 100.48601 14058 ft 322 kts 109°
2026-04-23 15:55 14.02862 100.50744 13725 ft 317 kts 110°
2026-04-23 15:56 14.02099 100.52855 13324 ft 313 kts 109°
2026-04-23 15:56 14.01340 100.54952 13111 ft 303 kts 110°
2026-04-23 15:56 14.00629 100.56916 12947 ft 292 kts 110°
2026-04-23 15:56 13.99933 100.58837 12787 ft 281 kts 110°
2026-04-23 15:57 13.99308 100.60707 12649 ft 271 kts 106°
2026-04-23 15:57 13.98803 100.62540 12499 ft 261 kts 104°
2026-04-23 15:57 13.98339 100.64311 12358 ft 252 kts 104°
2026-04-23 15:57 13.97892 100.66027 12151 ft 246 kts 104°
2026-04-23 15:58 13.97452 100.67720 11882 ft 243 kts 104°
2026-04-23 15:58 13.97024 100.69398 11594 ft 241 kts 101°
2026-04-23 15:58 13.97051 100.71092 11265 ft 239 kts 68°
2026-04-23 15:58 13.98060 100.72412 10915 ft 239 kts 30°
2026-04-23 15:59 13.99609 100.73001 10623 ft 238 kts 14°
2026-04-23 15:59 14.01220 100.73392 10343 ft 237 kts 18°
2026-04-23 15:59 14.02590 100.74272 9993 ft 235 kts 53°
2026-04-23 15:59 14.03121 100.75823 9653 ft 234 kts 92°
2026-04-23 16:00 14.02568 100.77349 9365 ft 229 kts 132°
2026-04-23 16:00 14.01237 100.78094 9190 ft 218 kts 172°
2026-04-23 16:00 13.99759 100.77910 8919 ft 213 kts 194°
2026-04-23 16:00 13.98344 100.77473 8629 ft 211 kts 196°
2026-04-23 16:01 13.96938 100.77067 8313 ft 209 kts 189°
2026-04-23 16:01 13.95535 100.77118 8124 ft 195 kts 167°
2026-04-23 16:01 13.94276 100.77454 7962 ft 179 kts 162°
2026-04-23 16:01 13.93134 100.77818 7782 ft 164 kts 161°
2026-04-23 16:02 13.92098 100.78159 7559 ft 150 kts 161°
2026-04-23 16:02 13.91122 100.78482 7246 ft 145 kts 161°
2026-04-23 16:02 13.90165 100.78799 6901 ft 144 kts 161°
2026-04-23 16:02 13.89219 100.79113 6564 ft 142 kts 161°
2026-04-23 16:03 13.88279 100.79424 6211 ft 141 kts 162°
2026-04-23 16:03 13.87348 100.79733 5850 ft 140 kts 162°
2026-04-23 16:03 13.86429 100.80037 5491 ft 138 kts 163°
2026-04-23 16:03 13.85493 100.80189 5126 ft 136 kts 178°
2026-04-23 16:04 13.84553 100.80118 4783 ft 136 kts 188°
2026-04-23 16:04 13.83631 100.79919 4441 ft 135 kts 193°
2026-04-23 16:04 13.82727 100.79682 4094 ft 133 kts 194°
2026-04-23 16:04 13.81835 100.79444 3754 ft 131 kts 194°
2026-04-23 16:05 13.81250 100.79290 3515 ft 131 kts 193°
2026-04-23 16:05 13.80070 100.78981 3040 ft 130 kts 195°
2026-04-23 16:05 13.79196 100.78753 2702 ft 129 kts 195°
2026-04-23 16:05 13.78330 100.78524 2349 ft 128 kts 194°
2026-04-23 16:06 13.77480 100.78299 1975 ft 130 kts 194°
2026-04-23 16:06 13.76658 100.78082 1671 ft 129 kts 193°
2026-04-23 16:06 13.75906 100.77882 1559 ft 119 kts 193°
2026-04-23 16:06 13.75104 100.77670 1564 ft 120 kts 193°
2026-04-23 16:07 13.74281 100.77456 1268 ft 123 kts 192°
2026-04-23 16:07 13.73466 100.77234 969 ft 121 kts 193°
2026-04-23 16:07 13.72642 100.77004 768 ft 120 kts 193°
2026-04-23 16:07 13.71839 100.76790 571 ft 119 kts 194°
2026-04-23 16:08 13.71049 100.76582 429 ft 119 kts 193°
2026-04-23 16:08 13.70250 100.76391 305 ft 118 kts 194°
2026-04-23 16:08 13.69453 100.76174 113 ft 117 kts 193°
2026-04-23 16:08 13.68673 100.75967 30 ft 111 kts 192°
2026-04-23 16:09 13.68015 100.75799 15 ft 83 kts 194°
2026-04-23 16:09 13.67573 100.75682 15 ft 33 kts 195°
2026-04-23 16:09 13.67423 100.75642 16 ft 20 kts 194°
2026-04-23 16:09 13.67279 100.75595 16 ft 24 kts 205°
2026-04-23 16:10 13.67148 100.75502 18 ft 11 kts 224°
2026-04-23 16:10 13.67145 100.75499 18 ft 0 kts 224°
2026-04-23 16:12 13.67138 100.75492 17 ft 6 kts 224°
2026-04-23 16:12 13.67099 100.75453 16 ft 9 kts 226°
2026-04-23 16:13 13.67098 100.75394 18 ft 9 kts 306°
2026-04-23 16:13 13.67247 100.75408 16 ft 17 kts 15°
2026-04-23 16:13 13.67370 100.75438 16 ft 18 kts 13°
2026-04-23 16:14 13.67495 100.75472 16 ft 19 kts 14°
2026-04-23 16:14 13.67622 100.75507 16 ft 19 kts 15°
2026-04-23 16:14 13.67740 100.75520 16 ft 15 kts 330°
2026-04-23 16:14 13.67807 100.75463 16 ft 12 kts 349°
2026-04-23 16:15 13.67889 100.75475 16 ft 12 kts 14°
2026-04-23 16:15 13.67905 100.75479 16 ft 0 kts 14°
2026-04-23 16:15 13.67908 100.75480 16 ft 2 kts 14°
2026-04-23 16:15 13.67958 100.75493 16 ft 13 kts 14°
2026-04-23 16:16 13.68072 100.75523 16 ft 20 kts 14°
2026-04-23 16:16 13.68189 100.75553 18 ft 16 kts 13°
2026-04-23 16:16 13.68300 100.75561 16 ft 16 kts 348°
2026-04-23 16:16 13.68355 100.75492 16 ft 13 kts 285°
2026-04-23 16:17 13.68316 100.75426 16 ft 9 kts 253°
2026-04-23 16:17 13.68315 100.75370 16 ft 10 kts 267°
2026-04-23 16:17 13.68264 100.75301 18 ft 13 kts 217°
2026-04-23 16:17 13.68207 100.75274 16 ft 3 kts 187°
2026-04-23 16:18 13.68204 100.75273 16 ft 0 kts 189°